FIN448 EFOU-EFHK

Flight info

Callsign FIN448
Flight time 0h 47m
Altitude 33000
Route MIKNU Y86 LUSEP
Aircraft A320/M-SDE1E2E3FGIM1RWXYZ/LB1

Departure

Time 2026-04-22 16:55
Airport Oulu Airport (EFOU)

Arrival

Time 2026-04-22 17:43
Airport Helsinki Vantaa Airport (EFHK)
Time Latitude Longitude Altitude Speed Heading
2026-04-22 16:32 64.92787 25.37467 50 ft 0 kts 31°
2026-04-22 16:48 64.92775 25.37450 47 ft 2 kts 31°
2026-04-22 16:48 64.92760 25.37429 47 ft 3 kts 31°
2026-04-22 16:48 64.92745 25.37407 45 ft 3 kts 33°
2026-04-22 16:49 64.92732 25.37378 49 ft 3 kts 70°
2026-04-22 16:49 64.92729 25.37338 49 ft 2 kts 105°
2026-04-22 16:49 64.92733 25.37314 47 ft 0 kts 122°
2026-04-22 16:52 64.92733 25.37315 47 ft 0 kts 122°
2026-04-22 16:52 64.92725 25.37351 48 ft 8 kts 117°
2026-04-22 16:52 64.92696 25.37462 48 ft 8 kts 122°
2026-04-22 16:53 64.92664 25.37588 44 ft 9 kts 122°
2026-04-22 16:53 64.92629 25.37722 44 ft 10 kts 121°
2026-04-22 16:53 64.92594 25.37859 45 ft 10 kts 121°
2026-04-22 16:53 64.92543 25.37948 44 ft 9 kts 176°
2026-04-22 16:54 64.92490 25.37881 43 ft 9 kts 230°
2026-04-22 16:54 64.92473 25.37737 42 ft 9 kts 261°
2026-04-22 16:54 64.92468 25.37625 45 ft 5 kts 271°
2026-04-22 16:54 64.92488 25.37519 45 ft 13 kts 301°
2026-04-22 16:55 64.92660 25.36843 50 ft 85 kts 301°
2026-04-22 16:55 64.93090 25.35207 69 ft 144 kts 309°
2026-04-22 16:55 64.93453 25.33838 468 ft 143 kts 306°
2026-04-22 16:55 64.94132 25.31223 1460 ft 143 kts 302°
2026-04-22 16:56 64.94663 25.28971 1840 ft 170 kts 289°
2026-04-22 16:56 64.94670 25.27040 2121 ft 191 kts 258°
2026-04-22 16:56 64.93776 25.24381 2540 ft 231 kts 214°
2026-04-22 16:56 64.92112 25.23501 3047 ft 264 kts 180°
2026-04-22 16:57 64.90240 25.24162 3892 ft 276 kts 168°
2026-04-22 16:57 64.88365 25.25328 4893 ft 281 kts 165°
2026-04-22 16:57 64.86454 25.26570 5850 ft 288 kts 166°
2026-04-22 16:57 64.84486 25.27733 6755 ft 295 kts 168°
2026-04-22 16:58 64.82473 25.28773 7667 ft 299 kts 169°
2026-04-22 16:58 64.80410 25.29718 8623 ft 303 kts 171°
2026-04-22 16:58 64.78320 25.30590 9578 ft 307 kts 171°
2026-04-22 16:58 64.76194 25.31429 10441 ft 312 kts 172°
2026-04-22 16:59 64.73978 25.32287 10833 ft 335 kts 171°
2026-04-22 16:59 64.71614 25.33197 11310 ft 351 kts 171°
2026-04-22 16:59 64.69167 25.34140 12074 ft 358 kts 171°
2026-04-22 16:59 64.66692 25.35093 12865 ft 363 kts 171°
2026-04-22 17:00 64.64186 25.36059 13671 ft 368 kts 171°
2026-04-22 17:00 64.59067 25.38051 15090 ft 377 kts 171°
2026-04-22 17:00 64.56465 25.39066 15785 ft 381 kts 171°
2026-04-22 17:01 64.53840 25.40090 16453 ft 386 kts 171°
2026-04-22 17:01 64.51182 25.41122 17180 ft 389 kts 171°
2026-04-22 17:01 64.48492 25.42160 17887 ft 393 kts 171°
2026-04-22 17:01 64.45785 25.43177 18524 ft 397 kts 173°
2026-04-22 17:02 64.43020 25.43649 19150 ft 399 kts 180°
2026-04-22 17:02 64.40235 25.43521 19781 ft 402 kts 182°
2026-04-22 17:02 64.37425 25.43354 20419 ft 405 kts 182°
2026-04-22 17:02 64.34599 25.43193 21058 ft 408 kts 182°
2026-04-22 17:03 64.31757 25.43037 21672 ft 411 kts 182°
2026-04-22 17:03 64.28873 25.42882 22274 ft 415 kts 182°
2026-04-22 17:03 64.25983 25.42728 22879 ft 418 kts 182°
2026-04-22 17:03 64.23053 25.42565 23478 ft 422 kts 182°
2026-04-22 17:04 64.20109 25.42399 23966 ft 425 kts 182°
2026-04-22 17:04 64.17140 25.42230 24463 ft 427 kts 182°
2026-04-22 17:04 64.14158 25.42066 24969 ft 429 kts 182°
2026-04-22 17:04 64.11167 25.41913 25473 ft 431 kts 181°
2026-04-22 17:05 64.08171 25.41760 25951 ft 433 kts 181°
2026-04-22 17:05 64.05150 25.41607 26414 ft 435 kts 181°
2026-04-22 17:05 64.02123 25.41451 26863 ft 437 kts 181°
2026-04-22 17:05 63.99069 25.41286 27332 ft 438 kts 181°
2026-04-22 17:06 63.96018 25.41116 27768 ft 441 kts 181°
2026-04-22 17:06 63.92945 25.40948 28184 ft 443 kts 181°
2026-04-22 17:06 63.89850 25.40780 28610 ft 445 kts 181°
2026-04-22 17:06 63.86750 25.40613 29025 ft 447 kts 181°
2026-04-22 17:07 63.83632 25.40444 29423 ft 449 kts 181°
2026-04-22 17:07 63.80503 25.40283 29782 ft 452 kts 181°
2026-04-22 17:07 63.77351 25.40129 30120 ft 454 kts 181°
2026-04-22 17:07 63.74185 25.39982 30417 ft 456 kts 181°
2026-04-22 17:08 63.70995 25.39831 30682 ft 459 kts 181°
2026-04-22 17:08 63.67830 25.39672 30930 ft 462 kts 181°
2026-04-22 17:08 63.64608 25.39500 31191 ft 464 kts 181°
2026-04-22 17:08 63.61374 25.39319 31445 ft 467 kts 181°
2026-04-22 17:09 63.58118 25.39134 31736 ft 468 kts 181°
2026-04-22 17:09 63.54859 25.38953 32067 ft 469 kts 181°
2026-04-22 17:09 63.51602 25.38780 32420 ft 469 kts 180°
2026-04-22 17:09 63.48338 25.38611 32751 ft 469 kts 180°
2026-04-22 17:10 63.41905 25.38288 32842 ft 451 kts 180°
2026-04-22 17:10 63.35673 25.37984 32844 ft 446 kts 180°
2026-04-22 17:11 63.29478 25.37668 32839 ft 446 kts 180°
2026-04-22 17:11 63.23262 25.37357 32837 ft 446 kts 180°
2026-04-22 17:12 63.17047 25.37034 32830 ft 447 kts 180°
2026-04-22 17:12 63.10862 25.36719 32824 ft 447 kts 180°
2026-04-22 17:13 63.04644 25.36407 32821 ft 447 kts 180°
2026-04-22 17:13 62.98410 25.36098 32814 ft 448 kts 180°
2026-04-22 17:14 62.92168 25.35778 32803 ft 449 kts 180°
2026-04-22 17:14 62.85923 25.35464 32806 ft 449 kts 180°
2026-04-22 17:15 62.79665 25.35160 32796 ft 450 kts 180°
2026-04-22 17:15 62.73418 25.34859 32793 ft 450 kts 180°
2026-04-22 17:16 62.67142 25.34532 32775 ft 451 kts 180°
2026-04-22 17:16 62.60816 25.34197 32756 ft 452 kts 180°
2026-04-22 17:17 62.54527 25.33888 32749 ft 452 kts 180°
2026-04-22 17:17 62.48268 25.33592 32751 ft 453 kts 180°
2026-04-22 17:18 62.41957 25.33291 32736 ft 454 kts 180°
2026-04-22 17:18 62.35635 25.32995 32741 ft 454 kts 180°
2026-04-22 17:19 62.22951 25.32401 32750 ft 456 kts 180°
2026-04-22 17:20 62.10269 25.31782 32756 ft 458 kts 180°
2026-04-22 17:21 62.00639 25.31329 32757 ft 460 kts 180°
2026-04-22 17:22 61.91030 25.30881 32750 ft 461 kts 180°
2026-04-22 17:22 61.84597 25.30579 32425 ft 463 kts 180°
2026-04-22 17:23 61.81339 25.30424 31964 ft 461 kts 180°
2026-04-22 17:23 61.74975 25.30128 30791 ft 458 kts 180°
2026-04-22 17:23 61.71803 25.29981 30214 ft 456 kts 180°
2026-04-22 17:24 61.68627 25.29835 29606 ft 454 kts 180°
2026-04-22 17:24 61.65469 25.29686 29030 ft 451 kts 180°
2026-04-22 17:24 61.62340 25.29542 28521 ft 446 kts 180°
2026-04-22 17:24 61.59271 25.29405 28064 ft 440 kts 180°
2026-04-22 17:25 61.56215 25.29266 27600 ft 436 kts 180°
2026-04-22 17:25 61.53204 25.29123 27155 ft 431 kts 180°
2026-04-22 17:25 61.50208 25.28976 26731 ft 427 kts 180°
2026-04-22 17:25 61.47248 25.28832 26310 ft 423 kts 180°
2026-04-22 17:26 61.44318 25.28689 25894 ft 420 kts 181°
2026-04-22 17:26 61.41432 25.27928 25588 ft 422 kts 196°
2026-04-22 17:26 61.38597 25.26151 25335 ft 424 kts 198°
2026-04-22 17:26 61.35781 25.24330 25088 ft 424 kts 199°
2026-04-22 17:27 61.33913 25.23111 24928 ft 424 kts 199°
2026-04-22 17:27 61.30156 25.20650 24598 ft 422 kts 199°
2026-04-22 17:27 61.27369 25.18828 24135 ft 420 kts 199°
2026-04-22 17:27 61.24607 25.17034 23602 ft 420 kts 199°
2026-04-22 17:28 61.21783 25.15206 22991 ft 421 kts 199°
2026-04-22 17:28 61.18990 25.13398 22430 ft 419 kts 199°
2026-04-22 17:28 61.16213 25.11601 21874 ft 418 kts 199°
2026-04-22 17:28 61.13438 25.09811 21332 ft 417 kts 199°
2026-04-22 17:29 61.10667 25.08036 20781 ft 416 kts 199°
2026-04-22 17:29 61.07898 25.06272 20244 ft 416 kts 199°
2026-04-22 17:29 61.05130 25.04509 19700 ft 415 kts 199°
2026-04-22 17:29 61.02373 25.02748 19169 ft 415 kts 199°
2026-04-22 17:30 60.99607 25.00985 18631 ft 415 kts 200°
2026-04-22 17:30 60.96855 24.99234 18104 ft 415 kts 200°
2026-04-22 17:30 60.94099 24.97485 17478 ft 407 kts 200°
2026-04-22 17:30 60.91448 24.95812 17022 ft 391 kts 200°
2026-04-22 17:31 60.88911 24.94211 16542 ft 379 kts 200°
2026-04-22 17:31 60.87223 24.93148 16227 ft 375 kts 200°
2026-04-22 17:31 60.84742 24.91586 15759 ft 372 kts 200°
2026-04-22 17:31 60.81469 24.89525 15145 ft 370 kts 200°
2026-04-22 17:32 60.79805 24.88474 14838 ft 370 kts 200°
2026-04-22 17:32 60.76541 24.86409 14227 ft 375 kts 200°
2026-04-22 17:32 60.74858 24.85349 13902 ft 376 kts 200°
2026-04-22 17:32 60.72361 24.83784 13413 ft 374 kts 199°
2026-04-22 17:33 60.70082 24.82362 12967 ft 372 kts 199°
2026-04-22 17:33 60.67615 24.80825 12484 ft 368 kts 199°
2026-04-22 17:33 60.65173 24.79307 12008 ft 365 kts 199°
2026-04-22 17:33 60.62756 24.77811 11538 ft 361 kts 199°
2026-04-22 17:34 60.60366 24.76336 11067 ft 358 kts 199°
2026-04-22 17:34 60.57999 24.74870 10589 ft 354 kts 199°
2026-04-22 17:34 60.55644 24.73407 10101 ft 354 kts 199°
2026-04-22 17:34 60.53292 24.71946 9614 ft 353 kts 199°
2026-04-22 17:35 60.50965 24.70504 9083 ft 344 kts 199°
2026-04-22 17:35 60.48687 24.69100 8600 ft 340 kts 199°
2026-04-22 17:35 60.46441 24.67718 8099 ft 336 kts 199°
2026-04-22 17:35 60.44213 24.66352 7589 ft 333 kts 198°
2026-04-22 17:36 60.42010 24.65003 7096 ft 327 kts 198°
2026-04-22 17:36 60.39887 24.63707 6600 ft 313 kts 198°
2026-04-22 17:36 60.37836 24.62454 6101 ft 301 kts 198°
2026-04-22 17:36 60.35861 24.61244 5611 ft 290 kts 198°
2026-04-22 17:37 60.33963 24.60087 5143 ft 280 kts 198°
2026-04-22 17:37 60.32143 24.58983 4872 ft 267 kts 199°
2026-04-22 17:37 60.30387 24.57919 4796 ft 262 kts 199°
2026-04-22 17:37 60.28623 24.57049 4554 ft 259 kts 186°
2026-04-22 17:38 60.26877 24.57273 4489 ft 245 kts 165°
2026-04-22 17:38 60.25360 24.58485 4407 ft 231 kts 145°
2026-04-22 17:38 60.24103 24.60464 4150 ft 225 kts 132°
2026-04-22 17:38 60.22953 24.62597 3883 ft 222 kts 133°
2026-04-22 17:39 60.22033 24.64854 3567 ft 205 kts 108°
2026-04-22 17:39 60.21746 24.67531 3073 ft 190 kts 78°
2026-04-22 17:39 60.22812 24.71850 2532 ft 169 kts 40°
2026-04-22 17:40 60.23620 24.73602 2311 ft 172 kts 40°
2026-04-22 17:40 60.24432 24.75374 2075 ft 167 kts 40°
2026-04-22 17:40 60.25192 24.77037 1832 ft 158 kts 39°
2026-04-22 17:40 60.25929 24.78646 1656 ft 155 kts 39°
2026-04-22 17:41 60.26659 24.80236 1438 ft 152 kts 38°
2026-04-22 17:41 60.27339 24.81732 1223 ft 138 kts 39°
2026-04-22 17:41 60.27973 24.83117 1035 ft 131 kts 39°
2026-04-22 17:41 60.28586 24.84455 894 ft 130 kts 40°
2026-04-22 17:42 60.29210 24.85813 746 ft 133 kts 39°
2026-04-22 17:42 60.29844 24.87178 573 ft 136 kts 42°
2026-04-22 17:42 60.30478 24.88594 406 ft 135 kts 41°
2026-04-22 17:42 60.31112 24.89985 237 ft 134 kts 40°
2026-04-22 17:43 60.31726 24.91320 148 ft 115 kts 45°
2026-04-22 17:43 60.32146 24.92256 161 ft 69 kts 47°
2026-04-22 17:43 60.32387 24.92804 173 ft 35 kts 61°
2026-04-22 17:43 60.32463 24.93258 174 ft 33 kts 76°
2026-04-22 17:44 60.32510 24.93678 171 ft 20 kts 77°
2026-04-22 17:44 60.32541 24.93918 170 ft 14 kts 62°
2026-04-22 17:44 60.32587 24.94025 171 ft 8 kts 46°
2026-04-22 17:44 60.32621 24.94098 171 ft 6 kts 47°
2026-04-22 17:45 60.32649 24.94161 171 ft 6 kts 47°
2026-04-22 17:45 60.32678 24.94225 172 ft 9 kts 47°
2026-04-22 17:45 60.32745 24.94373 173 ft 18 kts 47°
2026-04-22 17:45 60.32830 24.94559 174 ft 19 kts 46°
2026-04-22 17:46 60.32920 24.94757 176 ft 19 kts 47°
2026-04-22 17:46 60.33015 24.94968 176 ft 22 kts 47°
2026-04-22 17:46 60.33123 24.95201 177 ft 24 kts 48°
2026-04-22 17:46 60.33209 24.95436 182 ft 17 kts 77°
2026-04-22 17:47 60.33150 24.95626 180 ft 17 kts 137°
2026-04-22 17:47 60.33061 24.95781 181 ft 16 kts 147°
2026-04-22 17:47 60.32964 24.95897 177 ft 18 kts 150°
2026-04-22 17:47 60.32853 24.96024 174 ft 19 kts 149°
2026-04-22 17:48 60.32779 24.96111 173 ft 19 kts 150°
2026-04-22 17:48 60.32630 24.96285 173 ft 17 kts 149°
2026-04-22 17:48 60.32560 24.96366 174 ft 7 kts 150°
2026-04-22 17:48 60.32536 24.96394 174 ft 0 kts 150°
2026-04-22 17:50 60.32532 24.96399 174 ft 3 kts 150°
2026-04-22 17:50 60.32484 24.96456 175 ft 12 kts 149°
2026-04-22 17:51 60.32409 24.96546 175 ft 14 kts 149°
2026-04-22 17:51 60.32307 24.96661 168 ft 20 kts 152°
2026-04-22 17:51 60.32181 24.96810 165 ft 22 kts 150°
2026-04-22 17:51 60.32051 24.96961 163 ft 17 kts 151°
2026-04-22 17:52 60.31951 24.97066 163 ft 16 kts 153°
2026-04-22 17:52 60.31874 24.97147 163 ft 2 kts 153°
2026-04-22 17:52 60.31857 24.97148 163 ft 4 kts 192°
2026-04-22 17:52 60.31841 24.97109 163 ft 4 kts 243°
2026-04-22 17:53 60.31827 24.97054 163 ft 0 kts 243°
2026-04-22 17:53 60.31823 24.97041 164 ft 0 kts 243°
2026-04-22 17:53 60.31823 24.97040 164 ft 0 kts 243°